Location: Rimouski
(48.4330°N, 68.5170°W)
Time: 23:50:31
(UTC-04:00)

Envisat - Pass Details

Date: 20 April 2019
Orbit: 764 x 766 km, 98.2° (Epoch: 21 May)

Event Time Altitude Azimuth Distance (km) Brightness Sun altitude
Rises 20:02:54 0° 199° (SSW) 3,221 6.2 -5.6°
Reaches altitude 10° 20:05:35 10° 213° (SSW) 2,300 5.6 -6.0°
Maximum altitude 20:09:43 25° 268° (W) 1,525 5.5 -6.6°
Drops below altitude 10° 20:13:52 10° 322° (NW) 2,314 6.7 -7.2°
Sets 20:16:35 0° 336° (NNW) 3,245 7.1 -7.6°
